This demonstration page uses our WeatherBlox Daily Observations layout. Learn more.

Left ArrowRight Arrow

Hourly Observations for May 22, 2020

Temp ( °F °C ) Dew Point ( °F °C ) Humidity (%) Winds ( mph kmh ) Pressure ( in mb ) Visibility ( mi km ) Precip ( " mm )
12:52 am 00:52 Cloudy 62 16.7 57 13.9 84 84 SE 9 15 29.92 1013 10 16 0.00 0.00
1:34 am 01:34 Cloudy 62 16.7 57 13.9 84 84 SE 10 17 29.92 1013 10 16 0.00 0.00
1:52 am 01:52 Cloudy 62 16.7 57 13.9 84 84 SE 9 15 29.91 1013 10 16 0.00 0.00
2:52 am 02:52 Cloudy 62 16.7 57 13.9 84 84 ESE 8 13 29.91 1013 10 16 0.00 0.00
2:58 am 02:58 Cloudy 62 16.7 57 13.9 84 84 ESE 7 11 29.91 1013 10 16 0.00 0.00
3:52 am 03:52 Cloudy 61 16.1 57 13.9 87 87 ESE 7 11 29.90 1013 10 16 0.00 0.00
4:52 am 04:52 Cloudy 61 16.1 57 13.9 87 87 E 8 13 29.89 1012 10 16 0.00 0.00
5:52 am 05:52 Cloudy 61 16.1 57 13.9 87 87 ESE 8 13 29.86 1011 10 16 0.00 0.00
6:52 am 06:52 Cloudy 61 16.1 57 13.9 87 87 SE 9 15 29.90 1013 10 16 0.00 0.00
7:52 am 07:52 Cloudy 61 16.1 57 13.9 87 87 SE 12 19 29.90 1013 10 16 0.00 0.00
8:21 am 08:21 Cloudy 61 16.1 57 13.9 87 87 ESE 14 22 29.89 1012 10 16 0.00 0.00
8:52 am 08:52 Mostly Cloudy 63 17.2 57 13.9 81 81 SE 13 20 29.89 1012 10 16 0.00 0.00
8:59 am 08:59 Cloudy 63 17.2 57 13.9 81 81 ESE 15 24 29.89 1012 10 16 0.00 0.00
9:52 am 09:52 Cloudy 63 17.2 58 14.4 84 84 SSE 14 22 29.90 1012 10 16 0.00 0.00
10:52 am 10:52 Cloudy 63 17.2 58 14.4 84 84 ESE 9 15 29.87 1012 10 16 0.00 0.00
11:38 am 11:38 Cloudy 67 19.4 59 15 76 76 ESE 9 15 29.86 1011 10 16 0.00 0.00
11:52 am 11:52 Cloudy 68 20 59 15 73 73 E 12 19 29.86 1011 10 16 0.00 0.00
12:11 pm 12:11 Cloudy 67 19.4 59 15 76 76 ESE 12 19 29.85 1011 10 16 0.00 0.00
12:40 pm 12:40 Cloudy 67 19.4 59 15 76 76 ESE 10 17 29.85 1011 10 16 0.00 0.00
12:52 pm 12:52 Cloudy 67 19.4 59 15 76 76 ESE 8 13 29.85 1011 10 16 0.00 0.00
1:52 pm 13:52 Cloudy 69 20.6 60 15.6 73 73 SE 14 22 29.84 1010 10 16 0.00 0.00
2:52 pm 14:52 Cloudy 69 20.6 60 15.6 73 73 E 9 15 29.82 1010 10 16 0.00 0.00
3:21 pm 15:21 Cloudy 69 20.6 60 15.6 73 73 ESE 8 13 29.79 1009 10 16 0.00 0.00
3:52 pm 15:52 Cloudy with Rain 67 19.4 62 16.7 84 84 SE 7 11 29.80 1009 4 6 0.03 0.76
4:52 pm 16:52 Cloudy 67 19.4 62 16.7 84 84 SE 7 11 29.79 1009 10 16 0.03 0.76
5:52 pm 17:52 Cloudy 68 20 61 16.1 78 78 E 12 19 29.77 1008 10 16 0.00 0.00
6:52 pm 18:52 Cloudy 67 19.4 61 16.1 81 81 ENE 16 26 29.75 1007 10 16 0.00 0.00
7:52 pm 19:52 Mostly Cloudy 67 19.4 61 16.1 81 81 ENE 15 24 29.74 1007 10 16 0.00 0.00
8:52 pm 20:52 Partly Cloudy 66 18.9 60 15.6 81 81 NE 14 22 29.72 1006 10 16 0.00 0.00
9:52 pm 21:52 Partly Cloudy 65 18.3 60 15.6 84 84 NE 17 28 29.72 1007 10 16 0.00 0.00
10:52 pm 22:52 Mostly Cloudy 65 18.3 60 15.6 84 84 ENE 16 26 29.73 1007 10 16 0.00 0.00
11:44 pm 23:44 Cloudy with Light Rain 65 18.3 60 15.6 84 84 E 8 13 29.72 1006 9 14 0.00 0.00
11:52 pm 23:52 Cloudy with Heavy Rain 64 17.8 61 16.1 90 90 ENE 7 11 29.71 1006 3 4 0.06 1.52
11:58 pm 23:58 Cloudy with Light Rain 64 17.8 60 15.6 87 87 ENE 7 11 29.71 1006 3 5 0.14 3.56

Powered by AerisWeather